Lid_Strength_Index
-1 -1 -1 -1 -1 -1 -1 -1 -1 -1 -1 -1 -1 -1 -1 -1 -1 -1 -1 1 -1 -1 -1 -1 -1 -1 -0 0 0 1 1 1 1 1 1 1 1 1 2 2 3 3 3
-1 -1 -1 -1 -1 -1 -0 -1 -1 -1 -1 -1 -1 -1 -1 -1 -1 -1 -1 -1 -0 -1 -2 -2 -2 -1 -1 -1 -0 -0 -0 0 1 1 1 1 1 1 2 2 3 3 3
-0 -0 -0 -1 -1 -1 -1 0 -0 -1 -0 -0 -1 -1 -1 -1 -1 -1 -1 -1 -1 0 -1 -2 -2 -2 -2 -2 -1 -1 -1 -0 0 0 1 1 1 2 2 2 3 3 3
-0 -0 0 -0 -1 -0 -0 -0 0 0 0 0 1 0 0 -0 -0 -1 -1 -1 -1 -1 -0 -1 -2 -2 -2 -2 -2 -2 -2 -1 -1 -0 0 0 1 1 2 2 2 3 3
-1 -0 0 0 -0 -1 -0 -0 0 1 1 1 1 1 1 1 0 1 1 0 -0 -0 -1 -1 -0 -1 -2 -2 -3 -3 -3 -2 -2 -1 -1 -0 0 1 1 2 2 2 3
-1 -1 -1 -1 -0 1 2 2 2 2 3 3 3 3 3 2 2 2 1 1 1 0 0 0 -0 0 1 -1 -2 -3 -3 -3 -2 -2 -2 -1 -0 0 1 1 1 2 2
0 0 -1 -0 0 2 2 2 3 3 3 2 5 4 3 3 2 2 2 2 2 1 0 0 1 1 0 -1 -1 -1 -3 -3 -2 -2 -2 -1 -1 -0 0 0 1 1 1
0 1 1 1 1 2 2 2 3 4 3 2 5 7 7 5 1 2 2 2 2 2 2 1 1 2 1 1 1 -1 -2 -3 -3 -2 -2 -2 -2 -1 -1 -0 0 0 1
0 1 0 1 1 2 3 3 3 3 5 3 6 6 9 8 5 2 2 3 3 3 2 3 3 2 2 2 1 1 -0 -1 -2 -2 -3 -2 -2 -2 -2 -1 -1 -0 0
-0 -1 -1 -0 1 1 2 2 2 3 4 5 5 5 5 4 6 6 2 3 3 4 3 4 4 3 3 3 3 4 3 2 1 -0 -1 -2 -2 -2 -2 -2 -2 -1 -0
-0 -0 -0 -0 0 1 1 2 2 3 3 4 4 5 6 6 7 7 7 5 4 5 4 4 4 4 3 4 3 4 4 3 3 2 1 0 -1 -1 -2 -2 -2 -2 -1
1 0 0 0 1 2 2 1 1 2 3 3 3 3 5 6 7 8 8 6 5 4 3 4 4 4 4 4 5 6 4 3 3 3 3 2 1 0 -1 -1 -2 -2 -2
1 0 0 0 -0 -0 -0 1 1 2 2 2 2 3 2 3 3 3 5 5 5 4 4 5 4 4 5 5 5 7 6 4 4 3 3 3 3 2 1 0 -1 -1 -2
1 1 2 1 1 1 0 -0 0 0 0 1 1 1 1 2 2 2 3 4 6 6 5 5 7 6 6 5 5 7 6 6 5 4 4 4 4 3 3 2 1 0 -1
4 4 3 3 3 2 2 2 2 2 1 1 1 1 2 2 2 2 3 4 5 7 7 5 5 6 6 6 6 6 6 7 5 5 5 5 5 4 3 3 2 1 0
5 5 5 4 4 4 4 3 3 2 3 2 2 2 2 3 3 3 3 4 4 5 7 5 4 5 7 8 8 8 8 9 8 7 7 6 5 5 4 4 4 3 1
6 6 7 6 6 6 5 5 5 5 5 5 4 4 4 4 4 4 4 4 4 5 7 6 5 4 7 8 9 9 9 10 10 9 8 7 6 6 6 5 5 4 3
7 8 8 8 7 7 7 7 7 6 6 6 6 5 6 5 6 5 5 5 5 5 6 7 6 6 7 9 9 10 11 10 10 9 8 7 7 6 7 7 6 5 6
9 9 9 9 9 8 8 8 8 8 7 7 6 6 6 6 7 7 7 7 6 6 6 7 7 6 7 11 12 12 12 11 11 10 9 8 8 7 7 6 6 7 7
10 10 10 10 9 9 9 9 9 9 8 8 8 8 8 8 8 8 7 7 7 7 7 7 7 6 6 12 12 12 12 12 12 11 10 10 9 9 8 7 7 8 8
11 11 11 11 10 10 10 10 10 10 10 10 9 9 8 9 10 8 8 8 8 8 7 7 7 7 8 12 12 11 12 12 12 11 11 11 11 11 10 8 9 8 8
11 11 12 12 12 11 10 10 11 11 11 11 10 10 9 9 8 8 7 7 7 8 9 9 9 9 8 10 12 12 12 13 13 11 11 11 10 11 11 10 8 7 7
12 12 12 12 12 12 11 10 11 12 11 11 10 10 10 9 9 9 8 8 8 8 7 8 10 9 10 10 11 12 12 11 11 11 11 12 11 11 10 9 7 8 8
13 13 13 13 13 13 11 11 11 11 11 10 10 10 10 9 9 9 10 10 10 10 9 9 10 10 10 10 10 10 10 11 11 11 10 13 11 12 11 10 8 9 8
14 14 13 13 14 13 11 11 11 12 12 11 11 10 10 10 9 9 11 11 11 10 9 8 7 8 8 8 8 10 11 11 13 12 11 12 12 14 14 14 11 9 10
14 14 14 13 13 14 11 11 11 12 12 11 10 10 11 10 10 10 11 11 11 10 10 9 9 9 8 8 8 9 9 11 12 13 11 13 13 14 16 15 14 14 14